[[{"header":{"parameterUnit":"m.s-1","parameterCategory":1,"la1":30.2991,"la2":30.254,"lo1":-89.0895,"lo2":-89.0444,"dy":0.0017,"dx":0.0017,"nx":28,"ny":28,"refTime":"2023-08-04T03:00:00:Z","depth":0,"parameterNumber":2,"parameterNumberName":"U-component_of_WINDS"},"data":[0,0,0,0,0,0,0,0,0,0,0,0,0,0,0,0,0,0,0,0,0,0,0,0,0,0,0,0,0,0,0,0,0,0,0,0,0,0,0,0,0,0,0,0,0,0,0,0,0,0,0,0,0,0,0,0,0,0,4.804,4.8042,0,4.8185,4.8187,4.8188,4.8118,4.8114,4.811,4.8107,4.8255,4.8263,4.827,0,0,0,0,0,0,0,0,0,0,0,0,0,4.7699,4.7706,4.804,4.8042,4.8044,4.8185,4.8187,4.8189,4.8118,4.8114,4.8109,4.8105,4.8253,4.8262,4.8271,0,0,0,0,0,0,0,0,0,0,0,0,0,4.7846,4.7708,4.804,4.8025,4.8026,4.8184,4.8187,4.8189,4.8119,4.8114,4.8108,4.8103,4.825,4.8261,4.8272,4.8453,0,0,4.8306,4.8311,0,0,0,0,0,0,0,0,4.7838,4.7859,4.8026,4.8027,4.8027,4.8128,4.8121,4.8278,4.8121,4.8084,4.8107,4.81,4.8217,4.8231,4.827,4.846,4.8466,4.8307,4.8314,4.8318,4.8322,0,0,0,0,0,0,0,4.7828,4.7852,4.8097,4.8028,4.8029,4.8011,4.8026,4.8151,4.818,4.8087,4.8082,4.81,4.8217,4.826,4.8273,4.8469,4.8307,4.8317,4.8323,4.8328,4.881,4.8816,0,0,0,0,0,0,4.7818,4.7844,4.8093,4.8102,4.7917,4.8022,4.8038,4.8101,4.8179,4.8185,4.8105,4.8096,4.8243,4.826,4.8278,4.8492,4.8318,4.8329,4.8335,4.8804,4.8811,4.8818,0,0,0,0,0,0,4.7811,4.7841,4.8087,4.7972,4.8002,4.8034,4.8105,4.8107,4.815,4.8192,4.8197,4.8143,4.824,4.8263,4.8409,4.8497,4.8334,4.8344,4.8797,4.8806,4.8815,4.8924,0,0,0,0,0,0,4.7802,4.7839,4.7909,4.7974,4.8008,4.8216,4.811,4.8114,4.8169,4.816,4.823,4.8236,4.8237,4.8393,4.842,4.8509,4.8353,4.8789,4.8801,4.8812,4.8913,4.8936,4.8956,0,0,0,0,0,4.779,4.7935,4.7913,4.7943,4.8096,4.8222,4.8241,4.8239,4.8177,4.8246,4.8273,4.8234,4.8483,4.8409,4.8439,4.8532,4.8783,4.8797,4.8811,4.8903,4.8931,4.8955,0,0,0,0,0,0,4.7881,4.7943,4.792,4.809,4.8151,4.8209,4.8297,4.827,4.835,4.8337,4.8331,4.8348,4.8499,4.8531,4.8446,4.871,4.8623,4.8644,4.8683,4.871,4.8731,4.8719,4.8362,0,0,0,0,0,4.792,4.8017,4.8067,4.8212,4.8244,4.8266,4.832,4.8313,4.8376,4.8402,4.8439,4.8501,4.8593,4.8654,4.8741,4.8917,4.893,4.8996,4.9018,4.9035,4.9052,4.9144,4.9173,4.8863,4.8863,4.8863,0,0,4.8004,4.805,4.8112,4.8232,4.8278,4.8377,4.8288,4.8398,4.8471,4.8418,4.8558,4.8588,4.8657,4.8818,4.8891,4.8849,4.9141,4.9053,4.9066,4.9074,4.9161,4.919,4.9216,4.8872,4.8871,4.8869,0,0,4.8205,4.8251,4.8376,4.8423,4.8494,4.8507,4.8537,4.86,4.8617,4.8757,4.8719,4.8806,4.8965,4.9014,4.906,4.9278,4.9243,4.9307,4.9418,4.9507,4.9532,4.9553,4.9627,4.9654,4.9324,4.9324,4.9325,0,4.8299,4.8448,4.8443,4.8555,4.8607,4.8564,4.8689,4.8735,4.8832,4.8868,4.882,4.9016,4.906,4.923,4.9283,4.9323,4.9355,4.9298,4.9529,4.955,4.957,4.9641,4.9669,4.9331,4.933,4.933,4.9329,0,4.8558,4.8662,4.8754,4.8846,4.8909,4.9027,4.9039,4.9104,4.9091,4.9109,4.925,4.9301,4.9395,4.9436,4.9426,4.9604,4.9575,4.9529,4.9441,4.9607,4.9673,4.97,4.9341,4.9339,4.9337,4.9335,0,0,4.8821,4.8908,4.8941,4.8981,4.9055,4.9134,4.9249,4.9341,4.9395,4.9463,4.9557,4.9692,4.9648,4.97,4.9694,4.9773,4.9938,4.9716,4.9717,4.9752,5.0134,5.0166,5.0198,4.9916,4.9921,4.9926,5.0126,0,4.9025,4.9226,4.9224,4.9409,4.9503,4.9462,4.9561,4.9617,4.9636,4.9718,4.9739,4.9833,4.977,4.98,4.9877,4.9902,5.0014,4.9888,5.0002,5.0006,4.9983,5.0233,5.0269,5.0456,5.0153,5.0157,5.016,0,4.929,4.9364,4.9559,4.9616,4.9655,4.9745,4.9827,4.9906,4.9967,4.9975,5.0033,5.0014,5.0129,5.004,5.0196,5.011,5.0157,5.0176,5.0183,5.0192,5.0091,5.0245,5.0516,5.0543,5.0202,5.0198,5.0195,0,4.9458,4.9607,4.9741,4.9777,4.9848,4.9911,4.9944,4.9999,5.0054,5.0126,5.0161,5.0246,5.0292,5.0358,5.0361,5.0297,5.0518,5.043,5.0526,5.0526,5.0572,5.0569,5.0851,5.0608,5.0608,5.0607,5.0606,0,4.9685,4.9804,4.9817,4.99,5.0031,5.0028,5.0158,5.0185,5.0234,5.0319,5.029,5.0371,5.0373,5.0455,5.0459,5.0586,5.0608,5.0616,5.0615,5.0617,5.0616,5.0646,5.0632,5.0615,5.0613,5.0611,5.061,0,4.9894,4.9908,5.0051,5.0105,5.0122,5.0216,5.0262,5.034,5.0356,5.0464,5.0489,5.0514,5.0609,5.062,5.0732,5.0734,5.0886,5.0873,5.0865,5.0861,5.0955,5.0945,5.1264,5.1304,5.1038,5.104,5.1043,0,5.0036,5.0127,5.019,5.0245,5.028,5.037,5.0425,5.0424,5.0482,5.0557,5.0625,5.0716,5.079,5.0943,5.097,5.1054,5.1041,5.1147,5.1053,5.1051,5.1038,5.1031,5.1039,5.1164,5.1167,5.117,5.1172,0,5.0286,5.0287,5.0367,5.0449,5.0515,5.058,5.0641,5.0687,5.0694,5.076,5.0856,5.0913,5.1025,5.1115,5.1198,5.1229,5.1201,5.1201,5.1227,5.1228,5.1218,5.1221,5.0911,5.1193,5.1191,5.1189,5.1188,5.1187,5.0464,5.0541,5.0596,5.0686,5.0731,5.0787,5.0862,5.0886,5.0966,5.1057,5.1052,5.1157,5.1213,5.132,5.1358,5.1439,5.1403,5.1442,5.1451,5.146,5.1467,5.1208,5.1454,5.1454,5.1453,5.1453,5.1452,0,5.0709,5.0742,5.0824,5.0909,5.0978,5.0946,5.101,5.107,5.1163,5.1218,5.1289,5.1398,5.1485,5.1519,5.1603,5.1661,5.165,5.1683,5.1677,5.1684,5.1496,5.1464,5.169,5.169,5.169,5.169,5.169,5.169,5.0844,5.0972,5.098,5.1128,5.1161,5.1263,5.1302,5.1353,5.1396,5.1518,5.159,5.1611,5.1657,5.1744,5.1821,5.1828,5.1859,5.1898,5.1899,5.1722,5.1698,5.1675,5.1644,5.1905,5.1905,5.208,5.2081,5.2083]},{"header":{"parameterUnit":"m.s-1","parameterCategory":1,"la1":30.2991,"la2":30.254,"lo1":-89.0895,"lo2":-89.0444,"dy":0.0017,"dx":0.0017,"nx":28,"ny":28,"refTime":"2023-08-04T03:00:00:Z","depth":0,"parameterNumber":3,"parameterNumberName":"V-component_of_WINDS"},"data":[0,0,0,0,0,0,0,0,0,0,0,0,0,0,0,0,0,0,0,0,0,0,0,0,0,0,0,0,0,0,0,0,0,0,0,0,0,0,0,0,0,0,0,0,0,0,0,0,0,0,0,0,0,0,0,0,0,0,1.0941,1.0941,0,1.1021,1.1022,1.1023,1.1029,1.1028,1.1027,1.1026,1.1109,1.1112,1.1115,0,0,0,0,0,0,0,0,0,0,0,0,0,1.0792,1.0794,1.0941,1.0942,1.0943,1.1021,1.1022,1.1023,1.1029,1.1028,1.1027,1.1026,1.1108,1.1112,1.1115,0,0,0,0,0,0,0,0,0,0,0,0,0,1.0863,1.0795,1.094,1.0955,1.0957,1.102,1.1022,1.1023,1.1029,1.1028,1.1027,1.1025,1.1107,1.1111,1.1116,1.117,0,0,1.113,1.1132,0,0,0,0,0,0,0,0,1.0859,1.0868,1.0952,1.0954,1.0957,1.1014,1.1,1.1073,1.103,1.1002,1.1026,1.1025,1.1078,1.1085,1.1103,1.1174,1.1178,1.113,1.1133,1.1135,1.1136,0,0,0,0,0,0,0,1.0854,1.0865,1.0972,1.0953,1.0956,1.0957,1.0966,1.1014,1.1047,1.1004,1.1005,1.1014,1.1079,1.1099,1.1105,1.1179,1.113,1.1134,1.1137,1.1139,1.1296,1.1298,0,0,0,0,0,0,1.0846,1.086,1.097,1.0975,1.0903,1.0961,1.0971,1.0997,1.1046,1.1052,1.1015,1.1014,1.1092,1.11,1.1108,1.1174,1.1135,1.1139,1.1142,1.1295,1.1297,1.1298,0,0,0,0,0,0,1.0843,1.0856,1.0967,1.0918,1.0932,1.0965,1.0994,1.0999,1.1018,1.1054,1.106,1.1029,1.1091,1.1102,1.1154,1.1177,1.1141,1.1145,1.1293,1.1295,1.1297,1.1306,0,0,0,0,0,0,1.0838,1.0854,1.0876,1.0918,1.0935,1.1012,1.0996,1.1001,1.1026,1.1025,1.1069,1.1075,1.1091,1.1147,1.1159,1.1182,1.1149,1.1291,1.1294,1.1297,1.1304,1.1309,1.1312,0,0,0,0,0,1.0833,1.0876,1.0877,1.089,1.0962,1.1013,1.1022,1.104,1.1028,1.1049,1.1072,1.1074,1.1172,1.1153,1.1166,1.1191,1.129,1.1293,1.1296,1.1302,1.1308,1.1312,0,0,0,0,0,0,1.0836,1.0882,1.0884,1.0941,1.0973,1.1014,1.1042,1.1045,1.1081,1.1079,1.1099,1.1109,1.116,1.1181,1.1158,1.1245,1.123,1.1236,1.123,1.1235,1.1239,1.1233,1.1153,0,0,0,0,0,1.0843,1.0881,1.0919,1.0966,1.0982,1.1009,1.1032,1.1042,1.1076,1.109,1.1117,1.1149,1.1188,1.1213,1.125,1.1307,1.1316,1.1331,1.1335,1.1338,1.1343,1.1373,1.1379,1.1309,1.1309,1.1309,0,0,1.0859,1.0889,1.0911,1.0967,1.0993,1.1031,1.102,1.1062,1.109,1.1096,1.1147,1.1167,1.1205,1.126,1.1285,1.1279,1.1364,1.1342,1.1344,1.1348,1.1377,1.1383,1.1389,1.1311,1.1311,1.131,0,0,1.0907,1.0933,1.0975,1.1001,1.1039,1.1057,1.1067,1.1107,1.112,1.1172,1.1176,1.121,1.1276,1.1302,1.1324,1.1379,1.1382,1.1391,1.1413,1.1441,1.1447,1.1452,1.1471,1.1477,1.1396,1.1396,1.1396,0,1.0922,1.0979,1.0996,1.1036,1.106,1.1067,1.1108,1.1133,1.1182,1.1198,1.119,1.1271,1.1297,1.1357,1.137,1.1388,1.1399,1.1386,1.1445,1.145,1.1455,1.1473,1.148,1.1397,1.1397,1.1396,1.1396,0,1.0995,1.1034,1.1063,1.111,1.1137,1.1178,1.12,1.1225,1.1233,1.125,1.1301,1.1333,1.1376,1.139,1.1399,1.1451,1.1445,1.1441,1.1426,1.1462,1.1479,1.1487,1.1398,1.1398,1.1397,1.1397,0,0,1.1048,1.1102,1.1112,1.1132,1.1175,1.1206,1.1246,1.1287,1.1308,1.1342,1.1375,1.143,1.1425,1.145,1.1461,1.1486,1.1526,1.1478,1.1479,1.1485,1.1584,1.1587,1.1595,1.1528,1.1529,1.153,1.1581,0,1.11,1.1173,1.1188,1.125,1.1286,1.1292,1.1327,1.1356,1.1373,1.1406,1.1425,1.1463,1.1454,1.1469,1.1495,1.1516,1.1546,1.1513,1.1559,1.156,1.1549,1.1605,1.1608,1.1655,1.1588,1.1589,1.159,0,1.1171,1.1205,1.1271,1.1306,1.1322,1.1354,1.1392,1.1423,1.1456,1.1467,1.1493,1.1501,1.1542,1.1524,1.1581,1.1557,1.1577,1.159,1.1592,1.1597,1.1577,1.1611,1.1671,1.1677,1.1601,1.16,1.1599,0,1.1203,1.1265,1.1311,1.1329,1.1372,1.1394,1.1413,1.1444,1.1467,1.15,1.1515,1.1553,1.1574,1.1602,1.1619,1.1605,1.1674,1.1658,1.1683,1.1683,1.1698,1.1697,1.1762,1.1711,1.1711,1.1711,1.1711,0,1.1259,1.1299,1.1326,1.1355,1.1399,1.1415,1.1458,1.1477,1.1505,1.1537,1.1544,1.1573,1.1594,1.1626,1.164,1.1684,1.1693,1.1703,1.1706,1.1702,1.1701,1.1715,1.1712,1.1713,1.1712,1.1712,1.1712,0,1.1302,1.1322,1.1373,1.1409,1.1419,1.145,1.148,1.1508,1.1524,1.1565,1.1575,1.1601,1.1639,1.1659,1.1707,1.1716,1.1765,1.1767,1.1754,1.1755,1.1779,1.1776,1.1855,1.1866,1.1809,1.1809,1.181,0,1.1337,1.1367,1.1406,1.1428,1.1447,1.1482,1.1505,1.1522,1.1546,1.1584,1.1607,1.1645,1.1677,1.1738,1.1761,1.1797,1.1799,1.1824,1.1805,1.1799,1.1798,1.1796,1.1799,1.1828,1.1828,1.1829,1.1829,0,1.1396,1.1404,1.1437,1.1473,1.1501,1.153,1.1559,1.1576,1.1598,1.1624,1.1663,1.1687,1.1735,1.1773,1.181,1.1829,1.1833,1.1835,1.1842,1.1839,1.183,1.1834,1.1763,1.1833,1.1833,1.1832,1.1832,1.1832,1.1436,1.1462,1.1493,1.1529,1.1553,1.1579,1.1606,1.1626,1.1658,1.1698,1.1706,1.1747,1.1777,1.1828,1.1848,1.1879,1.1874,1.1885,1.1888,1.189,1.1891,1.1825,1.1886,1.1886,1.1886,1.1886,1.1886,0,1.1494,1.1514,1.1547,1.1587,1.1615,1.1615,1.1646,1.167,1.1706,1.1733,1.1764,1.1807,1.1844,1.1869,1.1905,1.1925,1.1928,1.1934,1.1933,1.1937,1.1894,1.1884,1.1932,1.1932,1.1932,1.1932,1.1932,1.1932,1.1528,1.1573,1.1584,1.1639,1.1659,1.1699,1.1716,1.174,1.1762,1.1811,1.184,1.1856,1.1883,1.1921,1.1953,1.196,1.1972,1.1979,1.1985,1.1945,1.194,1.1936,1.1926,1.1982,1.1982,1.2025,1.2026,1.2026]}]]